| time (UTC) | temp C | wind direction | speed KPH | gust KPH | rain 1hr cm | rain 24hr cm | rain mn cm | humidity % | barometer mb |
| 20260508023019 | -17 | 199 | 0.0 | 0.0 | 0.00 | 0.00 | 0.00 | 1010.6 | |
| 20260508021514 | -17 | 199 | 0.0 | 0.0 | 0.00 | 0.00 | 0.00 | 1010.5 | |
| 20260508020015 | -17 | 199 | 0.0 | 0.0 | 0.00 | 0.00 | 0.00 | 1010.4 | |
| 20260508014504 | -17 | 199 | 0.0 | 0.0 | 0.00 | 0.00 | 0.00 | 1010.3 | |
| 20260508013059 | -17 | 199 | 0.0 | 0.0 | 0.00 | 0.00 | 0.00 | 1010.1 | |
| 20260508011558 | -17 | 199 | 0.0 | 0.0 | 0.00 | 0.00 | 0.00 | 1009.9 | |
| 20260508010050 | -17 | 257 | 0.0 | 0.0 | 0.00 | 0.00 | 0.00 | 1009.7 | |
| 20260508004544 | -17 | 244 | 0.0 | 0.0 | 0.00 | 0.00 | 0.00 | 1009.5 | |
| 20260508003039 | -17 | 274 | 0.0 | 0.0 | 0.00 | 0.00 | 0.00 | 1009.2 | |
| 20260508001539 | -17 | 304 | 0.0 | 0.0 | 0.00 | 0.00 | 0.00 | 1009.0 | |
| 20260508000032 | -17 | 250 | 0.0 | 0.0 | 0.00 | 0.00 | 0.00 | 1008.7 | |
| 20260507234523 | -17 | 242 | 0.0 | 0.0 | 0.00 | 0.00 | 0.00 | 1008.6 | |
| 20260507233031 | -17 | 261 | 0.0 | 0.0 | 0.00 | 0.00 | 0.00 | 1008.5 | |
| 20260507231516 | -17 | 278 | 0.0 | 0.0 | 0.00 | 0.00 | 0.00 | 1008.2 | |
| 20260507230010 | -17 | 219 | 0.0 | 0.0 | 0.00 | 0.00 | 0.00 | 1008.1 | |
| 20260507224506 | -17 | 252 | 0.0 | 0.0 | 0.00 | 0.00 | 0.00 | 1008.0 | |
| 20260507223103 | -17 | 286 | 0.0 | 0.0 | 0.00 | 0.00 | 0.00 | 1007.8 | |
| 20260507221557 | -17 | 288 | 0.0 | 0.0 | 0.00 | 0.00 | 0.00 | 1007.7 | |
| 20260507220051 | -17 | 80 | 0.0 | 6.4 | 0.00 | 0.00 | 0.00 | 1007.5 | |
| 20260507214546 | -17 | 277 | 0.0 | 16.1 | 0.00 | 0.00 | 0.00 | 1007.4 | |
| 20260507213041 | -17 | 273 | 0.0 | 6.4 | 0.00 | 0.00 | 0.00 | 1007.1 | |
| 20260507211535 | -17 | 236 | 0.0 | 4.8 | 0.00 | 0.00 | 0.00 | 1007.3 | |
| 20260507210033 | -17 | 260 | 0.0 | 3.2 | 0.00 | 0.00 | 0.00 | 1007.0 | |
| 20260507204526 | -17 | 295 | 0.0 | 9.7 | 0.00 | 0.00 | 0.00 | 1007.1 | |
| 20260507203053 | -17 | 236 | 0.0 | 8.0 | 0.00 | 0.00 | 0.00 | 1007.1 | |
| 20260507201549 | -17 | 262 | 0.0 | 8.0 | 0.00 | 0.00 | 0.00 | 1007.1 | |
| 20260507200040 | -17 | 126 | 0.0 | 6.4 | 0.00 | 0.00 | 0.00 | 1007.2 | |
| 20260507194604 | -17 | 279 | 0.0 | 3.2 | 0.00 | 0.00 | 0.00 | 1007.5 | |
| 20260507193038 | -17 | 267 | 0.0 | 8.0 | 0.00 | 0.00 | 0.00 | 1007.5 | |
| 20260507191534 | -17 | 256 | 0.0 | 1.6 | 0.00 | 0.00 | 0.00 | 1007.5 | |
| 20260507190022 | -17 | 338 | 0.0 | 16.1 | 0.00 | 0.00 | 0.00 | 1007.5 | |
| 20260507184517 | -17 | 250 | 3.2 | 14.5 | 0.00 | 0.00 | 0.00 | 1007.7 | |
| 20260507183024 | -17 | 296 | 0.0 | 14.5 | 0.00 | 0.00 | 0.00 | 1007.8 | |
| 20260507181508 | -17 | 221 | 0.0 | 0.0 | 0.00 | 0.00 | 0.00 | 1007.8 | |
| 20260507180037 | -17 | 242 | 0.0 | 0.0 | 0.00 | 0.00 | 0.00 | 1008.0 | |
| 20260507174530 | -17 | 209 | 0.0 | 0.0 | 0.00 | 0.00 | 0.00 | 1008.0 | |
| 20260507173029 | -17 | 268 | 0.0 | 11.3 | 0.00 | 0.00 | 0.00 | 1008.3 | |
| 20260507171531 | -17 | 263 | 0.0 | 1.6 | 0.00 | 0.00 | 0.00 | 1008.4 | |
| 20260507170012 | -17 | 254 | 0.0 | 0.0 | 0.00 | 0.00 | 0.00 | 1008.5 | |
| 20260507164508 | -17 | 268 | 0.0 | 11.3 | 0.00 | 0.00 | 0.00 | 1008.6 | |
| 20260507163100 | -17 | 208 | 0.0 | 0.0 | 0.00 | 0.00 | 0.00 | 1008.7 | |
| 20260507163000 | -17 | 290 | 0.0 | 0.0 | 0.00 | 0.00 | 0.00 | 1008.7 | |
| 20260507161605 | -17 | 255 | 0.0 | 0.0 | 0.00 | 0.00 | 0.00 | 1008.8 | |
| 20260507160052 | -17 | 264 | 0.0 | 17.7 | 0.00 | 0.00 | 0.00 | 1009.0 | |
| 20260507154549 | -17 | 253 | 0.0 | 0.0 | 0.00 | 0.00 | 0.00 | 1009.2 | |
| 20260507153013 | -17 | 271 | 0.0 | 0.0 | 0.00 | 0.00 | 0.00 | 1009.3 | |
| 20260507151509 | -17 | 246 | 0.0 | 0.0 | 0.00 | 0.00 | 0.00 | 1009.4 | |
| 20260507150002 | -17 | 280 | 0.0 | 0.0 | 0.00 | 0.00 | 0.00 | 1009.6 | |
| 20260507144602 | -17 | 265 | 0.0 | 0.0 | 0.00 | 0.00 | 0.00 | 1009.8 | |
| 20260507143057 | -17 | 241 | 0.0 | 0.0 | 0.00 | 0.00 | 0.00 | 1010.0 | |
| 20260507141616 | -17 | 271 | 0.0 | 0.0 | 0.00 | 0.00 | 0.00 | 1010.2 | |
| 20260507140043 | -17 | 207 | 0.0 | 0.0 | 0.00 | 0.00 | 0.00 | 1010.4 | |
| 20260507134538 | -17 | 286 | 0.0 | 0.0 | 0.00 | 0.00 | 0.00 | 1010.5 | |
| 20260507133034 | -17 | 279 | 0.0 | 0.0 | 0.00 | 0.05 | 0.00 | 1010.5 | |
| 20260507131534 | -17 | 236 | 0.0 | 0.0 | 0.00 | 0.05 | 0.00 | 1010.7 | |
| 20260507130055 | -17 | 288 | 0.0 | 0.0 | 0.00 | 0.05 | 0.00 | 1010.6 | |
| 20260507124551 | -17 | 211 | 0.0 | 0.0 | 0.00 | 0.05 | 0.00 | 1010.6 | |
| 20260507123045 | -17 | 250 | 0.0 | 0.0 | 0.00 | 0.10 | 0.00 | 1010.6 | |
| 20260507121543 | -17 | 350 | 0.0 | 0.0 | 0.00 | 0.10 | 0.00 | 1010.8 | |
| 20260507120043 | -17 | 350 | 0.0 | 0.0 | 0.00 | 0.10 | 0.00 | 1010.7 | |
| 20260507114531 | -17 | 350 | 0.0 | 0.0 | 0.00 | 0.10 | 0.00 | 1010.8 | |
| 20260507113039 | -17 | 350 | 0.0 | 0.0 | 0.00 | 0.23 | 0.00 | 1010.7 | |
| 20260507111520 | -17 | 350 | 0.0 | 0.0 | 0.00 | 0.23 | 0.00 | 1010.6 | |
| 20260507110017 | -17 | 350 | 0.0 | 0.0 | 0.00 | 0.23 | 0.00 | 1010.5 | |
| 20260507104515 | -17 | 350 | 0.0 | 0.0 | 0.00 | 0.23 | 0.00 | 1010.4 | |
| 20260507103009 | -17 | 350 | 0.0 | 0.0 | 0.00 | 0.46 | 0.00 | 1010.3 | |
| 20260507101533 | -17 | 350 | 0.0 | 0.0 | 0.00 | 0.46 | 0.00 | 1010.2 | |
| 20260507100036 | -17 | 350 | 0.0 | 0.0 | 0.00 | 0.46 | 0.00 | 1010.2 | |
| 20260507094557 | -17 | 350 | 0.0 | 0.0 | 0.00 | 0.46 | 0.00 | 1010.3 | |
| 20260507093050 | -17 | 350 | 0.0 | 0.0 | 0.00 | 0.69 | 0.00 | 1010.2 | |
| 20260507091546 | -17 | 350 | 0.0 | 0.0 | 0.00 | 0.69 | 0.00 | 1010.3 | |
| 20260507090043 | -17 | 350 | 0.0 | 0.0 | 0.00 | 0.69 | 0.00 | 1010.3 | |
| 20260507084534 | -17 | 350 | 0.0 | 0.0 | 0.00 | 0.69 | 0.00 | 1010.3 | |
| 20260507083030 | -17 | 350 | 0.0 | 0.0 | 0.00 | 0.86 | 0.00 | 1010.3 | |
| 20260507081531 | -17 | 350 | 0.0 | 0.0 | 0.00 | 0.86 | 0.00 | 1010.2 | |
| 20260507080019 | -17 | 350 | 0.0 | 0.0 | 0.00 | 0.86 | 0.00 | 1010.4 | |
| 20260507074526 | -17 | 350 | 0.0 | 0.0 | 0.00 | 0.86 | 0.00 | 1010.4 | |
| 20260507073011 | -17 | 350 | 0.0 | 0.0 | 0.00 | 0.86 | 0.00 | 1010.3 | |
| 20260507071504 | -17 | 350 | 0.0 | 0.0 | 0.00 | 0.86 | 0.00 | 1010.4 | |
| 20260507070100 | -17 | 350 | 0.0 | 0.0 | 0.00 | 0.86 | 0.00 | 1010.6 | |
| 20260507064610 | -17 | 350 | 0.0 | 0.0 | 0.00 | 0.86 | 0.00 | 1010.5 | |
| 20260507063102 | -17 | 350 | 0.0 | 0.0 | 0.00 | 0.99 | 0.00 | 1010.4 | |
| 20260507061526 | -17 | 350 | 0.0 | 0.0 | 0.00 | 0.99 | 0.00 | 1010.6 | |
| 20260507060012 | -17 | 350 | 0.0 | 0.0 | 0.00 | 0.99 | 0.00 | 1010.7 | |
| 20260507054538 | -17 | 350 | 0.0 | 0.0 | 0.00 | 0.99 | 0.00 | 1010.8 | |
| 20260507053036 | -17 | 350 | 0.0 | 0.0 | 0.00 | 1.12 | 0.00 | 1011.0 | |
| 20260507051527 | -17 | 350 | 0.0 | 0.0 | 0.00 | 1.12 | 0.00 | 1011.3 | |
| 20260507050022 | -17 | 350 | 0.0 | 0.0 | 0.00 | 1.12 | 0.00 | 1011.3 | |
| 20260507044517 | -17 | 350 | 0.0 | 0.0 | 0.00 | 1.12 | 0.00 | 1011.3 | |
| 20260507043013 | -17 | 350 | 0.0 | 0.0 | 0.00 | 1.14 | 0.00 | 1011.2 | |
| 20260507041544 | -17 | 350 | 0.0 | 0.0 | 0.00 | 1.14 | 0.00 | 1011.2 | |
| 20260507040034 | -17 | 350 | 0.0 | 0.0 | 0.00 | 1.14 | 0.00 | 1011.1 | |
| 20260507034535 | -17 | 350 | 0.0 | 0.0 | 0.00 | 1.14 | 0.00 | 1011.2 | |
| 20260507033024 | -17 | 350 | 0.0 | 0.0 | 0.00 | 1.14 | 1.14 | 1010.9 | |
| 20260507031519 | -17 | 350 | 0.0 | 0.0 | 0.00 | 1.14 | 1.14 | 1010.8 | |
| 20260507030015 | -17 | 350 | 0.0 | 0.0 | 0.00 | 1.14 | 1.14 | 1010.9 | |
| 20260507024552 | -17 | 350 | 0.0 | 0.0 | 0.00 | 1.14 | 1.14 | 1010.6 |